Location: Little Elm
(33.1626°N, 96.9375°W)
Time: 13:36:19
(UTC+00:00)

H-2A R/B - Visible Passes

Search period start: 26 June 2022 00:00
Search period end: 06 July 2022 00:00
Orbit: 491 x 536 km, 97.3° (Epoch: 01 April)

Date Brightness Start Highest point End Pass type
(mag) Time Alt. Az. Time Alt. Az. Time Alt. Az.
28 Jun 3.7 10:51:50 10° NNE 10:55:25 48° E 10:59:02 10° S visible
29 Jun 4.7 10:35:45 10° NE 10:39:00 28° E 10:42:14 10° SSE visible
30 Jun 5.4 10:19:59 10° NE 10:22:31 17° E 10:25:03 10° SE visible
01 Jul 5.9 10:05:17 10° E 10:06:00 10° E 10:06:43 10° ESE visible
04 Jul 4.0 10:47:13 10° NNE 10:50:47 42° E 10:54:22 10° S visible
05 Jul 4.9 10:31:09 10° NE 10:34:17 25° E 10:37:26 10° SSE visible
